パンスターズ彗星

P/2024 J1 ( PanSTARRS )

English version
Home page
Updated on March 4, 2025

---------------------------------------------------------------------

・ プロフィール

発見日 2024年5月1日
発見光度 20.8等
発見者 Pan-STARRS 1 telescope (Haleakala)

・ 軌道要素

Epoch 2024 Oct. 17.0 TT = JDT 2460600.5                                         
T 2023 Nov. 11.12957 TT                                 Pike                    
q   2.6374693            (2000.0)            P               Q                  
n   0.13262333     Peri.  200.33741     -0.94699118     -0.28899837             
a   3.8082265      Node   321.95408     +0.31714446     -0.77129869             
e   0.3074284      Incl.   13.16006     +0.05125532     -0.56707872             
P   7.43                                                                        
From 33 observations 2024 Mar. 19-May 10, mean residual 0".3.                   

・ 光度変化

        m1 = 14.5 + 5 logΔ + 10.0 log r

---------------------------------------------------------------------

軌道要素はM.P.E.C. 2025-A174に掲載されたものです。
光度グラフはComet for Windowsで作成したものです。

---------------------------------------------------------------------

Copyright(C) Seiichi Yoshida (comet@aerith.net). All rights reserved.